Weather History for KJQF - May, 2013

Change the Weather History Date:

Thursday, May 2, 2013

  Actual Average (KCLT) Record (KCLT)
Temperature  
Mean Temperature 58 °F 64 °F  
Max Temperature 62 °F 76 °F 91 °F (1959)
Min Temperature 55 °F 52 °F 32 °F (1963)
Degree Days  
Heating Degree Days 6 3  
Month to date heating degree days 7  
Since 1 July heating degree days 3339  
Cooling Degree Days 0 2  
Month to date cooling degree days 4  
Year to date cooling degree days 41  
Growing Degree Days 8 (Base 50)    
Moisture  
Dew Point 54 °F    
Average Humidity 90    
Maximum Humidity 100    
Minimum Humidity 77    
Precipitation  
Precipitation 0.05 in 0.10 in 1.36 in (2004)
Month to date precipitation 0.19  
Year to date precipitation 13.97  
Snow  
Snow 0.00 in 0.00 in 0.00 in ()
Month to date snowfall 0.0  
Since 1 July snowfall 4.3  
Snow Depth -    
Sea Level Pressure  
Sea Level Pressure 30.31 in    
Wind  
Wind Speed 5 mph (NE)    
Max Wind Speed 12 mph    
Max Gust Speed -    
Visibility 8 miles    
Events Rain    
T = Trace of Precipitation, MM = Missing Value Source: NWS Daily Summary

Daily Weather History Graph

Daily Weather History Graph

Search for Another Location

Airport or City:

Trip Planner

Search our weather history database for the weather conditions in past years. The results will help you decide how hot, cold, wet, or windy it might be!

Date:

Astronomy

May. 02, 2013 Rise Set
Actual Time 6:30 AM EDT 8:10 PM EDT
Civil Twilight 6:02 AM EDT 8:37 PM EDT
Nautical Twilight 5:29 AM EDT 9:10 PM EDT
Astronomical Twilight 4:55 AM EDT 9:45 PM EDT
Moon 2:00 AM EDT (5/2) 1:12 PM EDT (5/2)
Length of Visible Light 14h 34m
Length of Day
13h 39m
Waning Gibbous, 48% of the Moon is Illuminated
May 2
Waning Gibbous
May 9
New
May 18
First Quarter
May 25
Full
May 31
Last Quarter

Hourly Weather History & Observations

Time (EDT) Temp. Dew Point Humidity Pressure Visibility Wind Dir Wind Speed Gust Speed Precip Events Conditions
12:15 AM 57.2 °F 53.6 °F 88% 30.33 in 5.0 mi NNE 4.6 mph - N/A   Drizzle
12:35 AM 57.2 °F 53.6 °F 88% 30.33 in 7.0 mi NNE 4.6 mph - N/A   Heavy Drizzle
12:55 AM 55.4 °F 53.6 °F 94% 30.33 in 10.0 mi Calm Calm - N/A   Overcast
1:15 AM 55.4 °F 53.6 °F 94% 30.32 in 5.0 mi NNE 3.5 mph - 0.01 in   Heavy Drizzle
1:35 AM 55.4 °F 53.6 °F 94% 30.32 in 7.0 mi NNE 3.5 mph - 0.02 in Rain Rain
1:55 AM 55.4 °F 55.4 °F 100% 30.31 in 7.0 mi NNE 3.5 mph - 0.03 in Rain Rain
2:15 AM 55.4 °F 55.4 °F 100% 30.31 in 5.0 mi NE 4.6 mph - 0.02 in Rain Heavy Rain
2:35 AM 55.4 °F 55.4 °F 100% 30.30 in 7.0 mi NNE 4.6 mph - 0.02 in   Drizzle
2:55 AM 55.4 °F 55.4 °F 100% 30.30 in 10.0 mi NNE 3.5 mph - 0.02 in   Overcast
3:15 AM 55.4 °F 55.4 °F 100% 30.29 in 10.0 mi NE 4.6 mph - N/A   Overcast
3:35 AM 55.4 °F 55.4 °F 100% 30.29 in 7.0 mi NE 4.6 mph - N/A   Overcast
3:55 AM 57.2 °F 55.4 °F 94% 30.29 in 7.0 mi NE 4.6 mph - N/A   Overcast
4:15 AM 55.4 °F 55.4 °F 100% 30.29 in 7.0 mi NE 4.6 mph - N/A   Overcast
4:35 AM 55.4 °F 55.4 °F 100% 30.30 in 7.0 mi NE 3.5 mph - N/A   Overcast
4:55 AM 55.4 °F 53.6 °F 94% 30.30 in 7.0 mi Calm Calm - N/A   Overcast
5:15 AM 55.4 °F 53.6 °F 94% 30.30 in 10.0 mi NE 4.6 mph - N/A   Overcast
5:35 AM 55.4 °F 53.6 °F 94% 30.30 in 7.0 mi NE 3.5 mph - N/A   Overcast
5:55 AM 55.4 °F 53.6 °F 94% 30.30 in 5.0 mi ENE 3.5 mph - N/A   Overcast
6:15 AM 55.4 °F 53.6 °F 94% 30.29 in 5.0 mi NE 3.5 mph - N/A   Overcast
6:35 AM 55.4 °F 53.6 °F 94% 30.31 in 5.0 mi Calm Calm - N/A   Overcast
6:55 AM 55.4 °F 53.6 °F 94% 30.31 in 5.0 mi NE 3.5 mph - N/A   Overcast
7:15 AM 55.4 °F 53.6 °F 94% 30.31 in 5.0 mi NE 5.8 mph - N/A   Overcast
7:35 AM 55.4 °F 53.6 °F 94% 30.31 in 4.0 mi NE 4.6 mph - N/A   Overcast
7:55 AM 57.2 °F 55.4 °F 94% 30.32 in 2.0 mi NE 9.2 mph - N/A   Overcast
8:55 AM 57.2 °F 55.4 °F 94% 30.33 in 3.0 mi NE 11.5 mph - N/A   Overcast
9:55 AM 55.4 °F 53.6 °F 94% 30.34 in 3.0 mi NE 11.5 mph - N/A   Overcast
10:55 AM 57.2 °F 53.6 °F 88% 30.35 in 5.0 mi NE 11.5 mph - N/A   Overcast
11:55 AM 59.0 °F 55.4 °F 88% 30.35 in 7.0 mi ENE 5.8 mph - N/A   Overcast
12:55 PM 60.8 °F 55.4 °F 82% 30.35 in 7.0 mi ENE 10.4 mph - N/A   Overcast
1:55 PM 60.8 °F 55.4 °F 82% 30.34 in 10.0 mi NE 6.9 mph - N/A   Overcast
2:55 PM 60.8 °F 55.4 °F 82% 30.34 in 10.0 mi NE 9.2 mph - N/A   Overcast
3:55 PM 62.6 °F 55.4 °F 77% 30.32 in 10.0 mi NE 4.6 mph - N/A   Overcast
4:55 PM 62.6 °F 55.4 °F 77% 30.30 in 10.0 mi NE 5.8 mph - N/A   Overcast
6:55 PM 62.6 °F 55.4 °F 77% 30.29 in 10.0 mi ENE 4.6 mph - N/A   Overcast
8:57 PM 60.8 °F 55.4 °F 82% 30.30 in 10.0 mi NE 4.6 mph - N/A   Overcast
9:15 PM 59.0 °F 53.6 °F 82% 30.30 in 10.0 mi NE 3.5 mph - N/A   Overcast
9:35 PM 59.0 °F 53.6 °F 82% 30.30 in 10.0 mi NE 5.8 mph - N/A   Overcast
9:55 PM 59.0 °F 53.6 °F 82% 30.30 in 10.0 mi NNE 6.9 mph - N/A   Overcast
9:57 PM 60.8 °F 55.4 °F 82% 30.31 in 10.0 mi NE 6.9 mph - N/A   Overcast
10:15 PM 59.0 °F 53.6 °F 82% 30.31 in 10.0 mi NE 8.1 mph - N/A   Overcast
10:35 PM 59.0 °F 55.4 °F 88% 30.31 in 10.0 mi NNE 8.1 mph - N/A   Overcast
10:55 PM 59.0 °F 53.6 °F 82% 30.30 in 10.0 mi NE 5.8 mph - N/A   Overcast
11:15 PM 59.0 °F 53.6 °F 82% 30.29 in 10.0 mi NNE 3.5 mph - N/A   Overcast
11:35 PM 59.0 °F 53.6 °F 82% 30.28 in 10.0 mi NNE 3.5 mph - N/A   Overcast
11:55 PM 59.0 °F 53.6 °F 82% 30.28 in 10.0 mi NNE 4.6 mph - N/A   Overcast